Find Aprizesat-1

NORAD ID: 28372 Int'l Des: 2004-025 Owner: SPQ Country: US operational
LEOCIRCULARRETROGRADESSO

Live Position

Loading 3D Globe...

About Aprizesat-1

Description loading...

Upcoming Passes

Passes for default location (London). Set your location on the main map for personalized predictions.

Altitude History

Loading altitude history...

Two-Line Element Set

1 28372U 04025G 26104.47289147 .00000169 00000-0 53903-4 0 9998
2 28372 98.6333 113.4566 0044341 350.6002 9.4358 14.51744142152666
Epoch: Apr 14, 2026 • Age: 16 hours

Current Status

Altitude 709.8 km
Velocity 7.51 km/s
Sub-Earth Point -43.13°S, 136.41°W
Launch Date Jun 29, 2004
Age 21.7 years
Type other

Technical Details

Classification Payload
Mass 11.00 kg
Dry Mass 11.00 kg
Total Mass 11.00 kg
Length 0.20 m
Diameter 0.20 m
Span 0.20 m
Shape Box + Ant
Manufacturer SPQ
Bus Type Aprize
Phase Status In Orbit
Owner/State SPQ/US

Most Searched